| time (UTC) | temp F | wind direction | speed MPH | gust MPH | rain 1hr in | rain 24hr in | rain mn in | humidity % | barometer mb |
| 20260510111542 | 49 | 180 | 2.0 | 3.0 | 0.00 | 0.00 | 0.00 | 93 | 1014.5 |
| 20260510110050 | 48 | 180 | 1.0 | 4.0 | 0.00 | 0.00 | 0.00 | 93 | 1014.4 |
| 20260510104539 | 48 | 180 | 1.0 | 4.0 | 0.00 | 0.00 | 0.00 | 93 | 1014.3 |
| 20260510103043 | 48 | 0 | 1.0 | 3.0 | 0.00 | 0.00 | 0.00 | 92 | 1014.2 |
| 20260510101535 | 48 | 180 | 2.0 | 4.0 | 0.00 | 0.00 | 0.00 | 92 | 1013.9 |
| 20260510100045 | 48 | 180 | 2.0 | 4.0 | 0.00 | 0.00 | 0.00 | 92 | 1013.7 |
| 20260510094544 | 48 | 0 | 0.0 | 1.0 | 0.00 | 0.01 | 0.00 | 92 | 1013.6 |
| 20260510093041 | 49 | 0 | 0.0 | 2.0 | 0.00 | 0.01 | 0.00 | 92 | 1013.5 |
| 20260510091537 | 49 | 180 | 1.0 | 3.0 | 0.00 | 0.01 | 0.00 | 92 | 1013.4 |
| 20260510090037 | 49 | 180 | 1.0 | 3.0 | 0.00 | 0.01 | 0.00 | 92 | 1013.2 |
| 20260510084550 | 49 | 180 | 1.0 | 2.0 | 0.00 | 0.01 | 0.00 | 92 | 1013.2 |
| 20260510083358 | 49 | 0 | 0.0 | 2.0 | 0.00 | 0.01 | 0.00 | 92 | 1013.0 |
| 20260510072058 | 49 | 180 | 1.0 | 3.0 | 0.00 | 0.01 | 0.00 | 91 | 1012.8 |
| 20260510070048 | 50 | 0 | 0.0 | 2.0 | 0.00 | 0.01 | 0.00 | 91 | 1012.8 |
| 20260510064857 | 50 | 0 | 0.0 | 1.0 | 0.00 | 0.01 | 0.00 | 91 | 1012.8 |
| 20260510061748 | 50 | 0 | 0.0 | 2.0 | 0.00 | 0.01 | 0.00 | 91 | 1012.9 |
| 20260510060046 | 51 | 0 | 0.0 | 0.0 | 0.00 | 0.01 | 0.00 | 91 | 1012.8 |
| 20260510054540 | 51 | 0 | 0.0 | 0.0 | 0.00 | 0.01 | 0.00 | 90 | 1012.9 |
| 20260510053039 | 51 | 0 | 0.0 | 0.0 | 0.00 | 0.01 | 0.00 | 90 | 1012.9 |
| 20260510051536 | 51 | 0 | 0.0 | 0.0 | 0.00 | 0.01 | 0.00 | 90 | 1012.8 |
| 20260510050052 | 52 | 0 | 0.0 | 0.0 | 0.00 | 0.01 | 0.00 | 90 | 1013.0 |
| 20260510044540 | 52 | 0 | 0.0 | 0.0 | 0.00 | 0.01 | 0.00 | 90 | 1013.1 |
| 20260510043042 | 52 | 180 | 0.0 | 3.0 | 0.00 | 0.01 | 0.00 | 89 | 1013.0 |
| 20260510033052 | 54 | 0 | 0.0 | 4.0 | 0.00 | 0.01 | 0.01 | 88 | 1012.8 |
| 20260510031545 | 54 | 180 | 2.0 | 4.0 | 0.00 | 0.01 | 0.01 | 87 | 1012.4 |
| 20260510030109 | 55 | 180 | 1.0 | 4.0 | 0.00 | 0.01 | 0.01 | 87 | 1012.5 |
| 20260510024536 | 55 | 0 | 1.0 | 3.0 | 0.00 | 0.01 | 0.01 | 86 | 1012.4 |
| 20260510023251 | 55 | 180 | 1.0 | 3.0 | 0.00 | 0.01 | 0.01 | 85 | 1012.2 |
| 20260510020042 | 57 | 0 | 0.0 | 0.0 | 0.00 | 0.01 | 0.01 | 82 | 1011.8 |
| 20260510014551 | 58 | 0 | 0.0 | 0.0 | 0.00 | 0.01 | 0.01 | 80 | 1011.5 |
| 20260510013036 | 58 | 0 | 0.0 | 0.0 | 0.00 | 0.01 | 0.01 | 79 | 1011.3 |
| 20260510011542 | 59 | 0 | 0.0 | 0.0 | 0.00 | 0.01 | 0.01 | 77 | 1011.1 |
| 20260510010052 | 60 | 0 | 0.0 | 3.0 | 0.00 | 0.01 | 0.01 | 76 | 1010.7 |
| 20260510004541 | 61 | 0 | 0.0 | 3.0 | 0.00 | 0.01 | 0.01 | 74 | 1010.6 |
| 20260510003039 | 62 | 0 | 0.0 | 0.0 | 0.00 | 0.01 | 0.01 | 72 | 1010.6 |
| 20260510001536 | 64 | 0 | 0.0 | 0.0 | 0.00 | 0.01 | 0.01 | 70 | 1010.1 |
| 20260510000125 | 65 | 0 | 0.0 | 2.0 | 0.00 | 0.01 | 0.01 | 68 | 1009.9 |
| 20260509234540 | 66 | 0 | 0.0 | 3.0 | 0.00 | 0.01 | 0.01 | 66 | 1009.8 |
| 20260509233040 | 68 | 0 | 0.0 | 10.0 | 0.00 | 0.01 | 0.01 | 60 | 1009.7 |
| 20260509231538 | 68 | 180 | 1.0 | 6.0 | 0.00 | 0.01 | 0.01 | 56 | 1009.8 |
| 20260509230040 | 69 | 180 | 3.0 | 10.0 | 0.00 | 0.01 | 0.01 | 55 | 1009.7 |
| 20260509224538 | 69 | 180 | 3.0 | 11.0 | 0.00 | 0.01 | 0.01 | 55 | 1009.6 |
| 20260509223041 | 69 | 180 | 2.0 | 10.0 | 0.00 | 0.01 | 0.01 | 55 | 1009.7 |
| 20260509221540 | 69 | 180 | 3.0 | 8.0 | 0.00 | 0.01 | 0.01 | 58 | 1009.9 |
| 20260509220039 | 69 | 180 | 2.0 | 11.0 | 0.00 | 0.01 | 0.01 | 56 | 1009.9 |
| 20260509214542 | 69 | 180 | 0.0 | 4.0 | 0.00 | 0.01 | 0.01 | 58 | 1009.9 |
| 20260509213040 | 69 | 0 | 0.0 | 3.0 | 0.00 | 0.01 | 0.01 | 61 | 1009.9 |
| 20260509211537 | 69 | 0 | 0.0 | 3.0 | 0.00 | 0.01 | 0.01 | 64 | 1009.8 |
| 20260509210041 | 69 | 180 | 1.0 | 5.0 | 0.00 | 0.01 | 0.01 | 63 | 1009.8 |
| 20260509204541 | 70 | 180 | 1.0 | 5.0 | 0.00 | 0.01 | 0.01 | 60 | 1009.8 |
| 20260509203041 | 70 | 0 | 4.0 | 9.0 | 0.00 | 0.01 | 0.01 | 53 | 1009.6 |
| 20260509201541 | 70 | 180 | 1.0 | 4.0 | 0.00 | 0.01 | 0.01 | 54 | 1009.4 |
| 20260509200040 | 69 | 180 | 1.0 | 4.0 | 0.00 | 0.01 | 0.01 | 60 | 1009.5 |
| 20260509194550 | 69 | 180 | 2.0 | 5.0 | 0.00 | 0.01 | 0.01 | 58 | 1009.4 |
| 20260509193044 | 70 | 180 | 3.0 | 8.0 | 0.00 | 0.01 | 0.01 | 48 | 1009.6 |
| 20260509191540 | 70 | 180 | 3.0 | 6.0 | 0.00 | 0.01 | 0.01 | 47 | 1009.5 |
| 20260509190043 | 71 | 0 | 1.0 | 13.0 | 0.00 | 0.01 | 0.01 | 47 | 1009.5 |
| 20260509184537 | 71 | 0 | 2.0 | 10.0 | 0.00 | 0.01 | 0.01 | 46 | 1009.5 |
| 20260509183035 | 70 | 180 | 3.0 | 14.0 | 0.00 | 0.01 | 0.01 | 46 | 1009.5 |
| 20260509181542 | 70 | 180 | 5.0 | 13.0 | 0.00 | 0.01 | 0.01 | 45 | 1009.7 |
| 20260509180052 | 69 | 180 | 4.0 | 12.0 | 0.00 | 0.01 | 0.01 | 46 | 1009.7 |
| 20260509174542 | 69 | 180 | 5.0 | 11.0 | 0.00 | 0.02 | 0.01 | 43 | 1009.8 |
| 20260509173052 | 70 | 180 | 3.0 | 11.0 | 0.00 | 0.02 | 0.01 | 49 | 1010.1 |
| 20260509171540 | 68 | 180 | 4.0 | 11.0 | 0.00 | 0.02 | 0.01 | 51 | 1010.0 |
| 20260509170044 | 67 | 180 | 2.0 | 8.0 | 0.00 | 0.02 | 0.01 | 53 | 1010.0 |
| 20260509164540 | 67 | 180 | 3.0 | 15.0 | 0.00 | 0.02 | 0.01 | 53 | 1010.0 |
| 20260509163039 | 67 | 180 | 2.0 | 12.0 | 0.00 | 0.02 | 0.01 | 57 | 1010.1 |
| 20260509161551 | 66 | 180 | 5.0 | 12.0 | 0.00 | 0.02 | 0.01 | 59 | 1010.1 |
| 20260509160044 | 64 | 180 | 1.0 | 3.0 | 0.00 | 0.02 | 0.01 | 68 | 1010.0 |
| 20260509154546 | 63 | 0 | 0.0 | 3.0 | 0.00 | 0.02 | 0.01 | 80 | 1009.8 |
| 20260509153053 | 62 | 0 | 0.0 | 2.0 | 0.00 | 0.02 | 0.01 | 80 | 1009.9 |
| 20260509151540 | 62 | 180 | 1.0 | 3.0 | 0.00 | 0.02 | 0.01 | 80 | 1010.0 |
| 20260509150038 | 61 | 0 | 0.0 | 3.0 | 0.00 | 0.02 | 0.01 | 80 | 1010.1 |
| 20260509144536 | 61 | 180 | 0.0 | 2.0 | 0.00 | 0.02 | 0.01 | 80 | 1010.1 |
| 20260509143044 | 61 | 0 | 0.0 | 2.0 | 0.00 | 0.02 | 0.01 | 82 | 1010.1 |
| 20260509141544 | 60 | 0 | 0.0 | 2.0 | 0.00 | 0.02 | 0.01 | 81 | 1010.1 |
| 20260509140054 | 58 | 180 | 0.0 | 4.0 | 0.00 | 0.02 | 0.01 | 79 | 1010.0 |
| 20260509134537 | 57 | 180 | 0.0 | 3.0 | 0.00 | 0.02 | 0.01 | 80 | 1010.1 |
| 20260509133039 | 56 | 0 | 0.0 | 1.0 | 0.00 | 0.02 | 0.01 | 81 | 1010.0 |
| 20260509131541 | 55 | 180 | 0.0 | 3.0 | 0.00 | 0.02 | 0.01 | 81 | 1009.8 |
| 20260509130040 | 53 | 180 | 1.0 | 4.0 | 0.00 | 0.02 | 0.01 | 82 | 1010.0 |
| 20260509124542 | 51 | 0 | 0.0 | 3.0 | 0.00 | 0.02 | 0.01 | 86 | 1010.3 |
| 20260509123039 | 50 | 180 | 2.0 | 4.0 | 0.00 | 0.02 | 0.01 | 86 | 1010.4 |
| 20260509121551 | 49 | 180 | 3.0 | 4.0 | 0.00 | 0.02 | 0.01 | 85 | 1010.7 |
| 20260509120033 | 49 | 180 | 3.0 | 4.0 | 0.00 | 0.02 | 0.01 | 85 | 1010.7 |